Location: Casalecchio di Reno
(44.4760°N, 11.2757°E)
Time: 15:00:17
(UTC+02:00)

DX 1 - Visible Passes

Search period start: 18 June 2024 00:00
Search period end: 28 June 2024 00:00
Orbit: 607 x 620 km, 98.3° (Epoch: 18 June)

Date Brightness Start Highest point End Pass type
(mag) Time Alt. Az. Time Alt. Az. Time Alt. Az.
18 Jun ? 00:05:21 10° ENE 00:06:58 12° E 00:06:58 12° E visible
18 Jun ? 01:39:06 10° N 01:43:21 67° WNW 01:44:00 57° WSW visible
19 Jun ? 00:19:39 10° NE 00:22:29 17° E 00:22:30 17° E visible
19 Jun ? 01:54:34 10° N 01:58:39 46° WNW 01:59:32 39° WSW visible
20 Jun ? 00:34:27 10° NE 00:37:58 24° E 00:38:01 24° E visible
20 Jun ? 02:10:07 10° N 02:13:55 32° WNW 02:15:04 28° W visible
21 Jun ? 00:49:28 10° NNE 00:53:24 34° E 00:53:33 34° ESE visible
21 Jun ? 02:25:46 10° NNW 02:29:09 23° WNW 02:30:35 20° W visible
22 Jun ? 01:04:37 10° NNE 01:08:48 50° E 01:09:03 49° ESE visible
22 Jun ? 02:41:34 10° NNW 02:44:21 17° WNW 02:46:05 14° W visible
23 Jun ? 01:19:52 10° NNE 01:24:09 74° ESE 01:24:34 67° SSE visible
23 Jun ? 02:57:44 10° NW 02:59:30 12° WNW 03:01:16 10° W visible
24 Jun ? 00:02:21 10° E 00:03:01 10° E 00:03:01 10° E visible
24 Jun ? 01:35:12 10° N 01:39:29 76° WNW 01:40:04 63° SW visible
25 Jun ? 00:16:00 10° NE 00:18:31 15° E 00:18:31 15° E visible
25 Jun ? 01:50:36 10° N 01:54:46 52° WNW 01:55:33 45° WSW visible
26 Jun ? 00:30:40 10° NE 00:33:59 22° E 00:34:01 22° E visible
26 Jun ? 02:06:05 10° N 02:10:01 36° WNW 02:11:02 31° W visible
27 Jun ? 00:45:36 10° NE 00:49:24 30° E 00:49:29 30° E visible
27 Jun ? 02:21:40 10° N 02:25:14 26° WNW 02:26:31 22° W visible
